Traverse City, MI

6:27 PM EDT on August 27, 2016 (GMT -0400)
Cherry Capital

Weather History for KTVC - March, 2013

Change the Weather History Date:

Friday, March 29, 2013

  Actual Average Record
Temperature  
Mean Temperature 34 °F 36 °F  
Max Temperature 45 °F 45 °F 82 °F (1910)
Min Temperature 23 °F 26 °F 2 °F (1970)
Degree Days  
Heating Degree Days 31 29  
Month to date heating degree days 1058 1005  
Since 1 July heating degree days 5904 6345  
Cooling Degree Days 0 0  
Month to date cooling degree days 0 0  
Year to date cooling degree days 0 0  
Moisture  
Dew Point 20 °F    
Average Humidity 60    
Maximum Humidity 88    
Minimum Humidity 31    
Precipitation  
Precipitation 0.00 in 0.07 in 0.50 in (1938)
Month to date precipitation 1.44 1.72  
Year to date precipitation 4.98 6.04  
Sea Level Pressure  
Sea Level Pressure 30.27 in    
Wind  
Wind Speed 2 mph (NNE)    
Max Wind Speed 9 mph    
Max Gust Speed 15 mph    
Visibility 10 miles    
Events      
T = Trace of Precipitation, MM = Missing Value Source: NWS Daily Summary

Daily Weather History Graph

Daily Weather History Graph

Search for Another Location

Airport or City:

Trip Planner

Search our weather history database for the weather conditions in past years. The results will help you decide how hot, cold, wet, or windy it might be!

Date:

Astronomy

Mar. 29, 2013 Rise Set
Actual Time 7:28 AM EDT 8:06 PM EDT
Civil Twilight 6:58 AM EDT 8:35 PM EDT
Nautical Twilight 6:24 AM EDT 9:10 PM EDT
Astronomical Twilight 5:47 AM EDT 9:47 PM EDT
Moon 11:14 PM EDT (3/29) 8:29 AM EDT (3/29)
Length of Visible Light 13h 37m
Length of Day
12h 38m
Waning Gibbous, 93% of the Moon is Illuminated
Mar 29
Waning Gibbous
Apr 3
Last Quarter
Apr 10
New
Apr 18
First Quarter
Apr 25
Full

Hourly Weather History & Observations

Time (EDT) Temp. Windchill Dew Point Humidity Pressure Visibility Wind Dir Wind Speed Gust Speed Precip Events Conditions
12:53 AM 28.0 °F - 21.0 °F 75% 30.29 in 10.0 mi Calm Calm - N/A   Clear
1:53 AM 28.0 °F - 21.0 °F 75% 30.29 in 10.0 mi Calm Calm - N/A   Clear
2:53 AM 26.1 °F - 19.9 °F 78% 30.28 in 10.0 mi Calm Calm - N/A   Clear
3:53 AM 25.0 °F - 21.0 °F 85% 30.28 in 10.0 mi Calm Calm - N/A   Clear
4:53 AM 24.1 °F - 19.9 °F 84% 30.28 in 10.0 mi Calm Calm - N/A   Clear
5:53 AM 24.1 °F - 19.9 °F 84% 30.27 in 10.0 mi Calm Calm - N/A   Clear
6:53 AM 23.0 °F - 19.9 °F 88% 30.28 in 10.0 mi Calm Calm - N/A   Clear
7:53 AM 23.0 °F - 19.9 °F 88% 30.29 in 10.0 mi Calm Calm - N/A   Clear
8:53 AM 27.0 °F - 23.0 °F 85% 30.30 in 10.0 mi Calm Calm - N/A   Clear
9:53 AM 32.0 °F - 25.0 °F 75% 30.30 in 10.0 mi Calm Calm - N/A   Clear
10:53 AM 37.0 °F - 25.0 °F 62% 30.30 in 10.0 mi Calm Calm - N/A   Clear
11:53 AM 41.0 °F - 18.0 °F 40% 30.31 in 10.0 mi Calm Calm - N/A   Clear
12:53 PM 41.0 °F 36.4 °F 18.0 °F 40% 30.30 in 10.0 mi NE 6.9 mph - N/A   Clear
1:53 PM 42.1 °F 37.7 °F 18.0 °F 38% 30.29 in 10.0 mi NE 6.9 mph - N/A   Clear
2:53 PM 43.0 °F 38.8 °F 18.0 °F 37% 30.27 in 10.0 mi NNE 6.9 mph - N/A   Partly Cloudy
3:53 PM 44.1 °F 39.0 °F 18.0 °F 35% 30.26 in 10.0 mi NNE 9.2 mph - N/A   Partly Cloudy
4:53 PM 45.0 °F 42.6 °F 17.1 °F 33% 30.25 in 10.0 mi North 4.6 mph - N/A   Partly Cloudy
5:53 PM 44.1 °F 40.1 °F 16.0 °F 32% 30.24 in 10.0 mi NE 6.9 mph - N/A   Partly Cloudy
6:53 PM 44.1 °F 42.5 °F 15.1 °F 31% 30.24 in 10.0 mi NNE 3.5 mph - N/A   Clear
7:53 PM 42.1 °F - 16.0 °F 35% 30.23 in 10.0 mi Calm Calm - N/A   Clear
8:53 PM 35.1 °F - 19.9 °F 54% 30.23 in 10.0 mi Calm Calm - N/A   Clear
9:53 PM 32.0 °F - 21.0 °F 64% 30.24 in 10.0 mi Calm Calm - N/A   Clear
10:53 PM 28.9 °F - 21.9 °F 75% 30.23 in 10.0 mi Calm Calm - N/A   Clear
11:53 PM 28.0 °F - 21.0 °F 75% 30.22 in 10.0 mi Calm Calm - N/A   Clear